Time,TemperatureF,DewpointF,PressureIn,WindDirection,WindDirectionDegrees,WindSpeedMPH,WindSpeedGustMPH,Humidity,HourlyPrecipIn,Conditions,Clouds,dailyrainin,SoftwareType,DateUTC
2013-10-12 00:03:00,57.8,55.5,29.76,West,260,0.0,1.0,92,0.05,,---,0.00,VWS V14.01,2013-10-12 05:03:00,
2013-10-12 00:08:00,57.7,55.4,29.76,WSW,239,2.0,5.0,92,0.05,,---,0.00,VWS V14.01,2013-10-12 05:08:00,
2013-10-12 00:13:00,57.6,55.3,29.76,West,281,3.0,5.0,92,0.02,,---,0.00,VWS V14.01,2013-10-12 05:13:00,
2013-10-12 00:18:00,57.5,54.9,29.76,South,184,3.0,5.0,91,0.02,,---,0.00,VWS V14.01,2013-10-12 05:18:00,
2013-10-12 00:23:00,57.4,54.8,29.76,SW,218,2.0,3.0,91,0.00,,---,0.00,VWS V14.01,2013-10-12 05:23:00,
2013-10-12 00:28:00,57.2,54.6,29.77,WSW,245,0.0,4.0,91,0.00,,---,0.00,VWS V14.01,2013-10-12 05:28:00,
2013-10-12 00:33:00,56.9,54.3,29.76,WSW,243,1.0,1.0,91,0.00,,---,0.00,VWS V14.01,2013-10-12 05:33:00,
2013-10-12 00:38:00,56.7,54.4,29.76,West,277,1.0,5.0,92,0.00,,---,0.00,VWS V14.01,2013-10-12 05:38:00,
2013-10-12 00:43:00,56.5,54.2,29.77,SW,229,0.0,3.0,92,0.00,,---,0.00,VWS V14.01,2013-10-12 05:43:00,
2013-10-12 00:48:00,56.2,53.9,29.78,West,277,1.0,3.0,92,0.00,,---,0.00,VWS V14.01,2013-10-12 05:48:00,
2013-10-12 00:53:00,55.9,53.3,29.78,SW,236,2.0,3.0,91,0.00,,---,0.00,VWS V14.01,2013-10-12 05:53:00,
2013-10-12 00:58:00,55.4,51.9,29.78,West,263,4.0,8.0,88,0.00,,---,0.00,VWS V14.01,2013-10-12 05:58:00,
2013-10-12 01:03:00,54.9,51.1,29.79,West,267,7.0,10.0,87,0.00,,---,0.00,VWS V14.01,2013-10-12 06:03:00,
2013-10-12 01:08:00,54.5,50.4,29.79,WSW,248,4.0,10.0,86,0.00,,---,0.00,VWS V14.01,2013-10-12 06:08:00,
2013-10-12 01:13:00,54.2,50.1,29.80,SW,225,3.0,11.0,86,0.00,,---,0.00,VWS V14.01,2013-10-12 06:13:00,
2013-10-12 01:18:00,54.0,49.9,29.80,West,280,2.0,11.0,86,0.00,,---,0.00,VWS V14.01,2013-10-12 06:18:00,
2013-10-12 01:23:00,53.8,49.4,29.80,WSW,257,5.0,9.0,85,0.00,,---,0.00,VWS V14.01,2013-10-12 06:23:00,
2013-10-12 01:28:00,53.6,49.5,29.80,West,261,2.0,9.0,86,0.00,,---,0.00,VWS V14.01,2013-10-12 06:28:00,
2013-10-12 01:33:00,53.3,49.2,29.81,WSW,243,1.0,6.0,86,0.00,,---,0.00,VWS V14.01,2013-10-12 06:33:00,
2013-10-12 01:38:00,53.1,49.0,29.80,WSW,243,0.0,6.0,86,0.00,,---,0.00,VWS V14.01,2013-10-12 06:38:00,
2013-10-12 01:43:00,52.9,49.1,29.81,WNW,287,3.0,7.0,87,0.00,,---,0.00,VWS V14.01,2013-10-12 06:43:00,
2013-10-12 01:48:00,52.8,49.0,29.81,WSW,253,1.0,7.0,87,0.00,,---,0.00,VWS V14.01,2013-10-12 06:48:00,
2013-10-12 01:53:00,52.5,48.4,29.81,WSW,253,6.0,7.0,86,0.00,,---,0.00,VWS V14.01,2013-10-12 06:53:00,
2013-10-12 01:58:00,52.5,47.2,29.81,WSW,243,13.0,14.0,82,0.00,,---,0.00,VWS V14.01,2013-10-12 06:58:00,
2013-10-12 02:03:00,52.4,46.8,29.81,WSW,245,5.0,9.0,81,0.00,,---,0.00,VWS V14.01,2013-10-12 07:03:00,
2013-10-12 02:08:00,52.2,46.5,29.82,WSW,248,3.0,10.0,81,0.00,,---,0.00,VWS V14.01,2013-10-12 07:08:00,
2013-10-12 02:13:00,51.9,46.6,29.82,SW,224,2.0,11.0,82,0.00,,---,0.00,VWS V14.01,2013-10-12 07:13:00,
2013-10-12 02:18:00,51.7,46.4,29.82,South,184,1.0,11.0,82,0.00,,---,0.00,VWS V14.01,2013-10-12 07:18:00,
2013-10-12 02:23:00,51.4,46.4,29.82,SW,235,2.0,5.0,83,0.00,,---,0.00,VWS V14.01,2013-10-12 07:23:00,
2013-10-12 02:28:00,51.1,46.4,29.82,WSW,246,2.0,5.0,84,0.00,,---,0.00,VWS V14.01,2013-10-12 07:28:00,
2013-10-12 02:33:00,50.9,46.2,29.82,South,190,2.0,7.0,84,0.00,,---,0.00,VWS V14.01,2013-10-12 07:33:00,
2013-10-12 02:39:00,50.8,46.2,29.83,WSW,249,6.0,7.0,84,0.00,,---,0.00,VWS V14.01,2013-10-12 07:39:00,
2013-10-12 02:44:00,50.8,46.2,29.83,WNW,294,3.0,6.0,84,0.00,,---,0.00,VWS V14.01,2013-10-12 07:44:00,
2013-10-12 02:49:00,50.6,46.0,29.83,SW,228,3.0,6.0,84,0.00,,---,0.00,VWS V14.01,2013-10-12 07:49:00,
2013-10-12 02:54:00,50.4,45.8,29.83,SW,222,2.0,4.0,84,0.00,,---,0.00,VWS V14.01,2013-10-12 07:54:00,
2013-10-12 02:59:00,50.1,45.8,29.82,WSW,243,2.0,4.0,85,0.00,,---,0.00,VWS V14.01,2013-10-12 07:59:00,
2013-10-12 03:04:00,50.0,45.4,29.83,SW,225,3.0,6.0,84,0.00,,---,0.00,VWS V14.01,2013-10-12 08:04:00,
2013-10-12 03:09:00,50.0,45.4,29.83,WSW,245,1.0,6.0,84,0.00,,---,0.00,VWS V14.01,2013-10-12 08:09:00,
2013-10-12 03:14:00,49.8,45.2,29.83,WSW,253,4.0,6.0,84,0.00,,---,0.00,VWS V14.01,2013-10-12 08:14:00,
2013-10-12 03:19:00,49.6,45.3,29.83,WSW,250,2.0,6.0,85,0.00,,---,0.00,VWS V14.01,2013-10-12 08:19:00,
2013-10-12 03:24:00,49.3,45.0,29.83,SW,224,3.0,3.0,85,0.00,,---,0.00,VWS V14.01,2013-10-12 08:24:00,
2013-10-12 03:29:00,49.2,44.9,29.84,SW,224,3.0,4.0,85,0.00,,---,0.00,VWS V14.01,2013-10-12 08:29:00,
2013-10-12 03:34:00,49.0,45.0,29.84,WSW,253,0.0,1.0,86,0.00,,---,0.00,VWS V14.01,2013-10-12 08:34:00,
2013-10-12 03:39:00,48.8,44.8,29.84,SW,221,0.0,3.0,86,0.00,,---,0.00,VWS V14.01,2013-10-12 08:39:00,
2013-10-12 03:44:00,48.6,44.9,29.84,West,271,2.0,4.0,87,0.00,,---,0.00,VWS V14.01,2013-10-12 08:44:00,
2013-10-12 03:49:00,48.5,44.8,29.84,WSW,248,1.0,4.0,87,0.00,,---,0.00,VWS V14.01,2013-10-12 08:49:00,
2013-10-12 03:54:00,48.5,44.8,29.84,SSW,212,1.0,4.0,87,0.00,,---,0.00,VWS V14.01,2013-10-12 08:54:00,
2013-10-12 03:59:00,48.7,45.0,29.84,SSW,205,2.0,5.0,87,0.00,,---,0.00,VWS V14.01,2013-10-12 08:59:00,
2013-10-12 04:04:00,48.7,45.0,29.84,NW,310,0.0,3.0,87,0.00,,---,0.00,VWS V14.01,2013-10-12 09:04:00,
2013-10-12 04:09:00,48.6,45.2,29.84,WSW,256,1.0,4.0,88,0.00,,---,0.00,VWS V14.01,2013-10-12 09:09:00,
2013-10-12 04:14:00,48.6,45.2,29.84,WSW,246,2.0,4.0,88,0.00,,---,0.00,VWS V14.01,2013-10-12 09:14:00,
2013-10-12 04:19:00,48.6,45.2,29.84,SSE,160,0.0,4.0,88,0.00,,---,0.00,VWS V14.01,2013-10-12 09:19:00,
2013-10-12 04:24:00,48.5,45.1,29.85,SSW,204,3.0,5.0,88,0.00,,---,0.00,VWS V14.01,2013-10-12 09:24:00,
2013-10-12 04:29:00,48.6,45.2,29.84,SSW,208,2.0,5.0,88,0.00,,---,0.00,VWS V14.01,2013-10-12 09:29:00,
2013-10-12 04:34:00,48.7,45.3,29.85,SW,235,2.0,3.0,88,0.00,,---,0.00,VWS V14.01,2013-10-12 09:34:00,
2013-10-12 04:39:00,48.8,45.1,29.84,WSW,255,0.0,5.0,87,0.00,,---,0.00,VWS V14.01,2013-10-12 09:39:00,
2013-10-12 04:44:00,48.8,45.1,29.85,SW,233,0.0,5.0,87,0.00,,---,0.00,VWS V14.01,2013-10-12 09:44:00,
2013-10-12 04:49:00,48.9,45.2,29.85,SW,232,0.0,6.0,87,0.00,,---,0.00,VWS V14.01,2013-10-12 09:49:00,
2013-10-12 04:54:00,48.8,45.1,29.85,SE,142,1.0,3.0,87,0.00,,---,0.00,VWS V14.01,2013-10-12 09:54:00,
2013-10-12 04:59:00,48.8,45.1,29.85,WNW,302,0.0,6.0,87,0.00,,---,0.00,VWS V14.01,2013-10-12 09:59:00,
2013-10-12 05:04:00,48.7,45.0,29.85,WSW,246,1.0,4.0,87,0.00,,---,0.00,VWS V14.01,2013-10-12 10:04:00,
2013-10-12 05:09:00,48.6,44.9,29.86,South,187,2.0,6.0,87,0.00,,---,0.00,VWS V14.01,2013-10-12 10:09:00,
2013-10-12 05:14:00,48.5,44.8,29.86,WSW,237,6.0,6.0,87,0.00,,---,0.00,VWS V14.01,2013-10-12 10:14:00,
2013-10-12 05:20:00,48.4,44.7,29.86,SW,226,3.0,6.0,87,0.00,,---,0.00,VWS V14.01,2013-10-12 10:20:00,
2013-10-12 05:25:00,48.2,44.8,29.86,SW,217,1.0,4.0,88,0.00,,---,0.00,VWS V14.01,2013-10-12 10:25:00,
2013-10-12 05:30:00,48.1,44.7,29.86,SSW,210,3.0,5.0,88,0.00,,---,0.00,VWS V14.01,2013-10-12 10:30:00,
2013-10-12 05:35:00,48.1,44.7,29.86,WSW,245,0.0,6.0,88,0.00,,---,0.00,VWS V14.01,2013-10-12 10:35:00,
2013-10-12 05:40:00,48.1,44.4,29.86,SSE,160,0.0,6.0,87,0.00,,---,0.00,VWS V14.01,2013-10-12 10:40:00,
2013-10-12 05:45:00,48.0,44.3,29.86,West,273,2.0,4.0,87,0.00,,---,0.00,VWS V14.01,2013-10-12 10:45:00,
2013-10-12 05:50:00,47.9,44.2,29.87,ESE,117,1.0,4.0,87,0.00,,---,0.00,VWS V14.01,2013-10-12 10:50:00,
2013-10-12 05:55:00,47.8,44.4,29.86,WSW,246,0.0,4.0,88,0.00,,---,0.00,VWS V14.01,2013-10-12 10:55:00,
2013-10-12 06:00:00,47.7,44.3,29.87,South,190,0.0,4.0,88,0.00,,---,0.00,VWS V14.01,2013-10-12 11:00:00,
2013-10-12 06:05:00,47.5,44.1,29.87,SW,218,0.0,2.0,88,0.00,,---,0.00,VWS V14.01,2013-10-12 11:05:00,
2013-10-12 06:10:00,47.3,43.9,29.87,NE,56,0.0,2.0,88,0.00,,---,0.00,VWS V14.01,2013-10-12 11:10:00,
2013-10-12 06:15:00,47.1,44.0,29.88,South,191,0.0,3.0,89,0.00,,---,0.00,VWS V14.01,2013-10-12 11:15:00,
2013-10-12 06:20:00,46.9,43.8,29.88,SSE,162,2.0,3.0,89,0.00,,---,0.00,VWS V14.01,2013-10-12 11:20:00,
2013-10-12 06:25:00,46.7,43.9,29.89,SW,224,0.0,4.0,90,0.00,,---,0.00,VWS V14.01,2013-10-12 11:25:00,
2013-10-12 06:30:00,46.4,43.6,29.89,West,271,1.0,4.0,90,0.00,,---,0.00,VWS V14.01,2013-10-12 11:30:00,
2013-10-12 06:35:00,46.2,43.7,29.89,SSE,163,1.0,3.0,91,0.00,,---,0.00,VWS V14.01,2013-10-12 11:35:00,
2013-10-12 06:40:00,45.9,43.4,29.89,SSE,166,0.0,3.0,91,0.00,,---,0.00,VWS V14.01,2013-10-12 11:40:00,
2013-10-12 06:45:00,45.8,43.3,29.89,SSE,165,1.0,4.0,91,0.00,,---,0.00,VWS V14.01,2013-10-12 11:45:00,
2013-10-12 06:50:00,45.7,43.5,29.89,SE,133,0.0,1.0,92,0.00,,---,0.00,VWS V14.01,2013-10-12 11:50:00,
2013-10-12 06:55:00,45.7,43.2,29.90,South,170,1.0,2.0,91,0.00,,---,0.00,VWS V14.01,2013-10-12 11:55:00,
2013-10-12 07:00:00,45.7,43.2,29.90,SSE,157,3.0,3.0,91,0.00,,---,0.00,VWS V14.01,2013-10-12 12:00:00,
2013-10-12 07:05:00,45.8,43.3,29.90,WSW,239,0.0,4.0,91,0.00,,---,0.00,VWS V14.01,2013-10-12 12:05:00,
2013-10-12 07:10:00,45.9,43.4,29.90,SE,139,2.0,2.0,91,0.00,,---,0.00,VWS V14.01,2013-10-12 12:10:00,
2013-10-12 07:15:00,45.8,43.3,29.90,WNW,294,0.0,4.0,91,0.00,,---,0.00,VWS V14.01,2013-10-12 12:15:00,
2013-10-12 07:20:00,45.7,43.2,29.90,SW,226,2.0,2.0,91,0.00,,---,0.00,VWS V14.01,2013-10-12 12:20:00,
2013-10-12 07:25:00,45.7,43.2,29.91,ESE,123,0.0,5.0,91,0.00,,---,0.00,VWS V14.01,2013-10-12 12:25:00,
2013-10-12 07:30:00,45.9,43.4,29.91,South,188,2.0,2.0,91,0.00,,---,0.00,VWS V14.01,2013-10-12 12:30:00,
2013-10-12 07:35:00,46.0,43.2,29.91,SW,225,2.0,4.0,90,0.00,,---,0.00,VWS V14.01,2013-10-12 12:35:00,
2013-10-12 07:40:00,46.2,43.4,29.91,SSW,208,2.0,2.0,90,0.00,,---,0.00,VWS V14.01,2013-10-12 12:40:00,
2013-10-12 07:45:00,46.4,43.6,29.91,WNW,283,1.0,4.0,90,0.00,,---,0.00,VWS V14.01,2013-10-12 12:45:00,
2013-10-12 07:50:00,46.6,43.5,29.91,West,266,2.0,2.0,89,0.00,,---,0.00,VWS V14.01,2013-10-12 12:50:00,
2013-10-12 07:55:00,46.8,43.7,29.91,West,266,3.0,8.0,89,0.00,,---,0.00,VWS V14.01,2013-10-12 12:55:00,
2013-10-12 08:01:00,47.3,43.9,29.91,WSW,253,2.0,7.0,88,0.00,,---,0.00,VWS V14.01,2013-10-12 13:01:00,
2013-10-12 08:06:00,47.5,43.8,29.91,SW,228,5.0,7.0,87,0.00,,---,0.00,VWS V14.01,2013-10-12 13:06:00,
2013-10-12 08:11:00,47.7,43.7,29.91,SW,214,0.0,5.0,86,0.00,,---,0.00,VWS V14.01,2013-10-12 13:11:00,
2013-10-12 08:16:00,47.9,43.9,29.92,WSW,250,0.0,6.0,86,0.00,,---,0.00,VWS V14.01,2013-10-12 13:16:00,
2013-10-12 08:21:00,48.0,43.7,29.92,South,172,1.0,5.0,85,0.00,,---,0.00,VWS V14.01,2013-10-12 13:21:00,
2013-10-12 08:26:00,48.0,43.7,29.92,West,279,1.0,6.0,85,0.00,,---,0.00,VWS V14.01,2013-10-12 13:26:00,
2013-10-12 08:31:00,48.0,43.7,29.92,SSE,154,3.0,5.0,85,0.00,,---,0.00,VWS V14.01,2013-10-12 13:31:00,
2013-10-12 08:36:00,48.1,43.5,29.92,West,267,1.0,6.0,84,0.00,,---,0.00,VWS V14.01,2013-10-12 13:36:00,
2013-10-12 08:41:00,48.2,43.6,29.92,West,280,1.0,6.0,84,0.00,,---,0.00,VWS V14.01,2013-10-12 13:41:00,
2013-10-12 08:46:00,48.4,43.5,29.92,WSW,246,8.0,10.0,83,0.00,,---,0.00,VWS V14.01,2013-10-12 13:46:00,
2013-10-12 08:51:00,48.6,43.7,29.93,West,279,2.0,8.0,83,0.00,,---,0.00,VWS V14.01,2013-10-12 13:51:00,
2013-10-12 08:56:00,48.8,43.6,29.93,WSW,249,5.0,8.0,82,0.00,,---,0.00,VWS V14.01,2013-10-12 13:56:00,
2013-10-12 09:01:00,49.0,43.8,29.93,WSW,243,3.0,5.0,82,0.00,,---,0.00,VWS V14.01,2013-10-12 14:01:00,
2013-10-12 09:06:00,49.2,43.6,29.93,SW,217,0.0,10.0,81,0.00,,---,0.00,VWS V14.01,2013-10-12 14:06:00,
2013-10-12 09:11:00,49.4,43.5,29.93,West,271,1.0,5.0,80,0.00,,---,0.00,VWS V14.01,2013-10-12 14:11:00,
2013-10-12 09:16:00,49.6,43.4,29.92,West,266,3.0,10.0,79,0.00,,---,0.00,VWS V14.01,2013-10-12 14:16:00,
2013-10-12 09:21:00,49.8,43.2,29.92,SW,231,8.0,9.0,78,0.00,,---,0.00,VWS V14.01,2013-10-12 14:21:00,
2013-10-12 09:26:00,50.1,43.5,29.92,South,188,4.0,12.0,78,0.00,,---,0.00,VWS V14.01,2013-10-12 14:26:00,
2013-10-12 09:31:00,50.3,43.0,29.93,SE,143,5.0,12.0,76,0.00,,---,0.00,VWS V14.01,2013-10-12 14:31:00,
2013-10-12 09:36:00,50.4,43.1,29.93,WSW,242,10.0,12.0,76,0.00,,---,0.00,VWS V14.01,2013-10-12 14:36:00,
2013-10-12 09:41:00,50.8,43.5,29.93,West,274,3.0,12.0,76,0.00,,---,0.00,VWS V14.01,2013-10-12 14:41:00,
2013-10-12 09:46:00,51.2,43.9,29.94,WSW,249,7.0,13.0,76,0.00,,---,0.00,VWS V14.01,2013-10-12 14:46:00,
2013-10-12 09:51:00,51.4,43.4,29.94,West,268,7.0,10.0,74,0.00,,---,0.00,VWS V14.01,2013-10-12 14:51:00,
2013-10-12 09:56:00,51.6,43.2,29.94,NW,308,3.0,13.0,73,0.00,,---,0.00,VWS V14.01,2013-10-12 14:56:00,
2013-10-12 10:01:00,51.7,43.3,29.94,WSW,249,8.0,8.0,73,0.00,,---,0.00,VWS V14.01,2013-10-12 15:01:00,
2013-10-12 10:06:00,51.8,43.8,29.94,SW,232,6.0,13.0,74,0.00,,---,0.00,VWS V14.01,2013-10-12 15:06:00,
2013-10-12 10:11:00,52.0,43.3,29.94,WSW,248,6.0,9.0,72,0.00,,---,0.00,VWS V14.01,2013-10-12 15:11:00,
2013-10-12 10:16:00,52.4,43.3,29.94,WSW,246,9.0,13.0,71,0.00,,---,0.00,VWS V14.01,2013-10-12 15:16:00,
2013-10-12 10:21:00,52.8,42.9,29.94,WNW,295,4.0,14.0,69,0.00,,---,0.00,VWS V14.01,2013-10-12 15:21:00,
2013-10-12 10:26:00,52.9,43.8,29.94,WSW,244,10.0,14.0,71,0.00,,---,0.00,VWS V14.01,2013-10-12 15:26:00,
2013-10-12 10:31:00,53.2,42.9,29.95,West,263,10.0,12.0,68,0.00,,---,0.00,VWS V14.01,2013-10-12 15:31:00,
2013-10-12 10:37:00,53.7,43.4,29.95,NW,321,8.0,13.0,68,0.00,,---,0.00,VWS V14.01,2013-10-12 15:37:00,
2013-10-12 10:42:00,53.7,42.6,29.95,SW,236,7.0,13.0,66,0.00,,---,0.00,VWS V14.01,2013-10-12 15:42:00,
2013-10-12 10:47:00,53.5,42.4,29.95,SSW,205,7.0,17.0,66,0.00,,---,0.00,VWS V14.01,2013-10-12 15:47:00,
2013-10-12 10:52:00,53.4,42.3,29.95,SSW,200,11.0,17.0,66,0.00,,---,0.00,VWS V14.01,2013-10-12 15:52:00,
2013-10-12 10:57:00,53.2,41.8,29.95,West,259,6.0,17.0,65,0.00,,---,0.00,VWS V14.01,2013-10-12 15:57:00,
2013-10-12 11:02:00,53.3,42.6,29.95,SW,232,8.0,14.0,67,0.00,,---,0.00,VWS V14.01,2013-10-12 16:02:00,
2013-10-12 11:07:00,53.3,41.8,29.96,West,270,6.0,16.0,65,0.00,,---,0.00,VWS V14.01,2013-10-12 16:07:00,
2013-10-12 11:12:00,53.6,43.3,29.96,WNW,288,5.0,11.0,68,0.00,,---,0.00,VWS V14.01,2013-10-12 16:12:00,
2013-10-12 11:17:00,53.6,42.5,29.95,West,271,3.0,12.0,66,0.00,,---,0.00,VWS V14.01,2013-10-12 16:17:00,
2013-10-12 11:22:00,54.1,42.6,29.96,WSW,243,10.0,13.0,65,0.00,,---,0.00,VWS V14.01,2013-10-12 16:22:00,
2013-10-12 11:27:00,54.4,42.5,29.96,West,262,4.0,15.0,64,0.00,,---,0.00,VWS V14.01,2013-10-12 16:27:00,
2013-10-12 11:32:00,54.5,42.6,29.96,SW,236,11.0,11.0,64,0.00,,---,0.00,VWS V14.01,2013-10-12 16:32:00,
2013-10-12 11:37:00,54.4,42.5,29.97,SW,224,4.0,12.0,64,0.00,,---,0.00,VWS V14.01,2013-10-12 16:37:00,
2013-10-12 11:42:00,54.4,42.1,29.97,SW,236,4.0,18.0,63,0.00,,---,0.00,VWS V14.01,2013-10-12 16:42:00,
2013-10-12 11:47:00,54.1,42.2,29.97,NW,307,12.0,18.0,64,0.00,,---,0.00,VWS V14.01,2013-10-12 16:47:00,
2013-10-12 11:52:00,54.0,41.7,29.97,WSW,239,7.0,11.0,63,0.00,,---,0.00,VWS V14.01,2013-10-12 16:52:00,
2013-10-12 11:57:00,54.0,41.3,29.98,WSW,246,9.0,14.0,62,0.00,,---,0.00,VWS V14.01,2013-10-12 16:57:00,
2013-10-12 12:02:00,53.8,42.3,29.98,WSW,250,3.0,9.0,65,0.00,,---,0.00,VWS V14.01,2013-10-12 17:02:00,
2013-10-12 12:07:00,53.7,41.8,29.98,West,274,5.0,16.0,64,0.00,,---,0.00,VWS V14.01,2013-10-12 17:07:00,
2013-10-12 12:12:00,53.7,41.8,29.99,WSW,245,9.0,14.0,64,0.00,,---,0.00,VWS V14.01,2013-10-12 17:12:00,
2013-10-12 12:17:00,53.7,41.4,29.99,SSW,211,4.0,14.0,63,0.00,,---,0.00,VWS V14.01,2013-10-12 17:17:00,
2013-10-12 12:22:00,53.7,41.4,29.99,WSW,248,10.0,14.0,63,0.00,,---,0.00,VWS V14.01,2013-10-12 17:22:00,
2013-10-12 12:27:00,53.8,41.9,29.99,WSW,243,6.0,15.0,64,0.00,,---,0.00,VWS V14.01,2013-10-12 17:27:00,
2013-10-12 12:32:00,53.9,42.0,29.99,SW,236,9.0,10.0,64,0.00,,---,0.00,VWS V14.01,2013-10-12 17:32:00,
2013-10-12 12:37:00,53.9,42.0,29.99,SW,236,7.0,10.0,64,0.00,,---,0.00,VWS V14.01,2013-10-12 17:37:00,
2013-10-12 12:42:00,54.1,42.2,29.99,SW,235,4.0,11.0,64,0.00,,---,0.00,VWS V14.01,2013-10-12 17:42:00,
2013-10-12 12:47:00,54.4,42.1,29.99,WSW,257,7.0,12.0,63,0.00,,---,0.00,VWS V14.01,2013-10-12 17:47:00,
2013-10-12 12:52:00,54.5,41.8,29.99,SW,222,8.0,14.0,62,0.00,,---,0.00,VWS V14.01,2013-10-12 17:52:00,
2013-10-12 12:57:00,54.5,41.3,29.99,West,281,8.0,15.0,61,0.00,,---,0.00,VWS V14.01,2013-10-12 17:57:00,
2013-10-12 13:03:00,54.7,41.5,29.99,WNW,290,5.0,12.0,61,0.00,,---,0.00,VWS V14.01,2013-10-12 18:03:00,
2013-10-12 13:08:00,55.2,41.1,29.99,West,279,6.0,15.0,59,0.00,,---,0.00,VWS V14.01,2013-10-12 18:08:00,
2013-10-12 13:13:00,55.4,40.9,29.98,West,259,7.0,17.0,58,0.00,,---,0.00,VWS V14.01,2013-10-12 18:13:00,
2013-10-12 13:18:00,55.4,40.4,29.99,WNW,286,5.0,17.0,57,0.00,,---,0.00,VWS V14.01,2013-10-12 18:18:00,
2013-10-12 13:23:00,55.3,40.8,29.99,West,262,6.0,21.0,58,0.00,,---,0.00,VWS V14.01,2013-10-12 18:23:00,
2013-10-12 13:28:00,55.2,40.2,29.99,WSW,252,10.0,21.0,57,0.00,,---,0.00,VWS V14.01,2013-10-12 18:28:00,
2013-10-12 13:33:00,55.0,40.1,29.99,West,276,6.0,17.0,57,0.00,,---,0.00,VWS V14.01,2013-10-12 18:33:00,
2013-10-12 13:38:00,54.9,40.4,29.99,West,277,4.0,17.0,58,0.00,,---,0.00,VWS V14.01,2013-10-12 18:38:00,
2013-10-12 13:43:00,55.0,40.5,29.99,WNW,290,8.0,18.0,58,0.00,,---,0.00,VWS V14.01,2013-10-12 18:43:00,
2013-10-12 13:48:00,55.2,39.8,29.99,West,262,5.0,18.0,56,0.00,,---,0.00,VWS V14.01,2013-10-12 18:48:00,
2013-10-12 13:53:00,55.5,40.5,29.99,WSW,242,7.0,17.0,57,0.00,,---,0.00,VWS V14.01,2013-10-12 18:53:00,
2013-10-12 13:58:00,55.6,41.1,29.99,WSW,250,6.0,17.0,58,0.00,,---,0.00,VWS V14.01,2013-10-12 18:58:00,
2013-10-12 14:03:00,55.5,41.0,30.00,WNW,297,7.0,16.0,58,0.00,,---,0.00,VWS V14.01,2013-10-12 19:03:00,
2013-10-12 14:08:00,55.3,40.8,29.99,SW,228,10.0,16.0,58,0.00,,---,0.00,VWS V14.01,2013-10-12 19:08:00,
2013-10-12 14:13:00,55.8,41.3,30.00,WNW,294,6.0,19.0,58,0.00,,---,0.00,VWS V14.01,2013-10-12 19:13:00,
2013-10-12 14:18:00,56.2,41.6,30.00,WSW,239,8.0,22.0,58,0.00,,---,0.00,VWS V14.01,2013-10-12 19:18:00,
2013-10-12 14:23:00,56.1,41.1,30.00,West,277,7.0,25.0,57,0.00,,---,0.00,VWS V14.01,2013-10-12 19:23:00,
2013-10-12 14:28:00,55.3,40.8,30.01,SSW,211,11.0,25.0,58,0.00,,---,0.00,VWS V14.01,2013-10-12 19:28:00,
2013-10-12 14:33:00,54.3,40.7,30.02,West,274,11.0,19.0,60,0.00,,---,0.00,VWS V14.01,2013-10-12 19:33:00,
2013-10-12 14:38:00,53.9,40.3,30.02,WSW,243,11.0,23.0,60,0.00,,---,0.00,VWS V14.01,2013-10-12 19:38:00,
2013-10-12 14:43:00,53.9,40.3,30.02,WNW,284,7.0,21.0,60,0.00,,---,0.00,VWS V14.01,2013-10-12 19:43:00,
2013-10-12 14:48:00,54.1,41.0,30.02,West,276,3.0,21.0,61,0.00,,---,0.00,VWS V14.01,2013-10-12 19:48:00,
2013-10-12 14:53:00,54.1,41.0,30.03,West,281,13.0,25.0,61,0.00,,---,0.00,VWS V14.01,2013-10-12 19:53:00,
2013-10-12 14:58:00,52.8,40.2,30.03,NW,304,11.0,25.0,62,0.00,,---,0.00,VWS V14.01,2013-10-12 19:58:00,
2013-10-12 15:03:00,52.0,40.6,30.03,West,270,10.0,18.0,65,0.00,,---,0.00,VWS V14.01,2013-10-12 20:03:00,
2013-10-12 15:08:00,51.6,40.6,30.04,West,281,7.0,18.0,66,0.00,,---,0.00,VWS V14.01,2013-10-12 20:08:00,
2013-10-12 15:13:00,51.5,40.9,30.04,WSW,250,7.0,15.0,67,0.00,,---,0.00,VWS V14.01,2013-10-12 20:13:00,
2013-10-12 15:18:00,51.5,41.3,30.04,West,264,5.0,15.0,68,0.00,,---,0.00,VWS V14.01,2013-10-12 20:18:00,
2013-10-12 15:23:00,51.4,41.2,30.04,West,262,9.0,16.0,68,0.00,,---,0.00,VWS V14.01,2013-10-12 20:23:00,
2013-10-12 15:29:00,51.4,41.2,30.05,SSW,195,7.0,16.0,68,0.00,,---,0.00,VWS V14.01,2013-10-12 20:29:00,
2013-10-12 15:34:00,51.5,40.9,30.05,WNW,298,9.0,15.0,67,0.00,,---,0.00,VWS V14.01,2013-10-12 20:34:00,
2013-10-12 15:39:00,51.8,41.2,30.05,West,278,6.0,20.0,67,0.00,,---,0.00,VWS V14.01,2013-10-12 20:39:00,
2013-10-12 15:44:00,52.1,41.9,30.05,NW,317,10.0,15.0,68,0.00,,---,0.00,VWS V14.01,2013-10-12 20:44:00,
2013-10-12 15:49:00,52.1,41.5,30.05,WNW,301,5.0,16.0,67,0.00,,---,0.00,VWS V14.01,2013-10-12 20:49:00,
2013-10-12 15:54:00,52.5,41.5,30.05,WNW,288,8.0,14.0,66,0.00,,---,0.00,VWS V14.01,2013-10-12 20:54:00,
2013-10-12 15:59:00,53.3,42.2,30.05,WNW,290,6.0,14.0,66,0.00,,---,0.00,VWS V14.01,2013-10-12 20:59:00,
2013-10-12 16:04:00,53.6,41.3,30.05,West,281,6.0,16.0,63,0.00,,---,0.00,VWS V14.01,2013-10-12 21:04:00,
2013-10-12 16:09:00,54.1,41.4,30.05,WNW,283,5.0,16.0,62,0.00,,---,0.00,VWS V14.01,2013-10-12 21:09:00,
2013-10-12 16:14:00,54.6,41.4,30.05,NW,305,7.0,13.0,61,0.00,,---,0.00,VWS V14.01,2013-10-12 21:14:00,
2013-10-12 16:19:00,55.3,42.1,30.05,WNW,302,7.0,13.0,61,0.00,,---,0.00,VWS V14.01,2013-10-12 21:19:00,
2013-10-12 16:24:00,56.0,40.5,30.05,West,267,6.0,10.0,56,0.00,,---,0.00,VWS V14.01,2013-10-12 21:24:00,
2013-10-12 16:29:00,55.5,39.6,30.06,WNW,297,6.0,16.0,55,0.00,,---,0.00,VWS V14.01,2013-10-12 21:29:00,
2013-10-12 16:34:00,55.7,40.3,30.05,WNW,288,3.0,10.0,56,0.00,,---,0.00,VWS V14.01,2013-10-12 21:34:00,
2013-10-12 16:39:00,55.6,40.2,30.05,WSW,239,5.0,10.0,56,0.00,,---,0.00,VWS V14.01,2013-10-12 21:39:00,
2013-10-12 16:44:00,55.5,40.1,30.06,West,280,5.0,12.0,56,0.00,,---,0.00,VWS V14.01,2013-10-12 21:44:00,
2013-10-12 16:49:00,55.6,39.2,30.06,NW,314,7.0,15.0,54,0.00,,---,0.00,VWS V14.01,2013-10-12 21:49:00,
2013-10-12 16:54:00,55.5,39.1,30.06,WNW,290,6.0,12.0,54,0.00,,---,0.00,VWS V14.01,2013-10-12 21:54:00,
2013-10-12 16:59:00,56.0,39.6,30.06,WNW,291,6.0,13.0,54,0.00,,---,0.00,VWS V14.01,2013-10-12 21:59:00,
2013-10-12 17:04:00,56.2,39.3,30.06,WNW,290,6.0,12.0,53,0.00,,---,0.00,VWS V14.01,2013-10-12 22:04:00,
2013-10-12 17:09:00,56.6,40.2,30.07,NW,305,9.0,12.0,54,0.00,,---,0.00,VWS V14.01,2013-10-12 22:09:00,
2013-10-12 17:14:00,56.7,40.7,30.07,NW,310,7.0,10.0,55,0.00,,---,0.00,VWS V14.01,2013-10-12 22:14:00,
2013-10-12 17:19:00,56.8,39.9,30.07,SW,221,7.0,12.0,53,0.00,,---,0.00,VWS V14.01,2013-10-12 22:19:00,
2013-10-12 17:24:00,56.7,39.8,30.07,WNW,295,4.0,10.0,53,0.00,,---,0.00,VWS V14.01,2013-10-12 22:24:00,
2013-10-12 17:29:00,56.5,40.1,30.07,WNW,290,5.0,10.0,54,0.00,,---,0.00,VWS V14.01,2013-10-12 22:29:00,
2013-10-12 17:34:00,56.4,40.0,30.08,WNW,284,5.0,9.0,54,0.00,,---,0.00,VWS V14.01,2013-10-12 22:34:00,
2013-10-12 17:39:00,56.3,37.4,30.08,WNW,288,9.0,18.0,49,0.00,,---,0.00,VWS V14.01,2013-10-12 22:39:00,
2013-10-12 17:44:00,56.1,37.2,30.08,WNW,293,6.0,14.0,49,0.00,,---,0.00,VWS V14.01,2013-10-12 22:44:00,
2013-10-12 17:49:00,55.9,35.4,30.08,WNW,285,5.0,18.0,46,0.00,,---,0.00,VWS V14.01,2013-10-12 22:49:00,
2013-10-12 17:54:00,55.7,35.8,30.09,WNW,291,10.0,14.0,47,0.00,,---,0.00,VWS V14.01,2013-10-12 22:54:00,
2013-10-12 17:59:00,55.5,36.2,30.09,WNW,297,2.0,14.0,48,0.00,,---,0.00,VWS V14.01,2013-10-12 22:59:00,
2013-10-12 18:04:00,55.1,36.3,30.09,NW,305,4.0,10.0,49,0.00,,---,0.00,VWS V14.01,2013-10-12 23:04:00,
2013-10-12 18:10:00,55.0,36.7,30.09,WNW,291,5.0,11.0,50,0.00,,---,0.00,VWS V14.01,2013-10-12 23:10:00,
2013-10-12 18:15:00,54.9,37.1,30.10,NW,311,2.0,12.0,51,0.00,,---,0.00,VWS V14.01,2013-10-12 23:15:00,
2013-10-12 18:20:00,54.6,36.8,30.10,WNW,301,3.0,12.0,51,0.00,,---,0.00,VWS V14.01,2013-10-12 23:20:00,
2013-10-12 18:25:00,54.4,37.2,30.10,West,270,1.0,6.0,52,0.00,,---,0.00,VWS V14.01,2013-10-12 23:25:00,
2013-10-12 18:30:00,54.3,37.1,30.11,WNW,290,6.0,10.0,52,0.00,,---,0.00,VWS V14.01,2013-10-12 23:30:00,
2013-10-12 18:35:00,54.1,37.4,30.11,WNW,302,3.0,6.0,53,0.00,,---,0.00,VWS V14.01,2013-10-12 23:35:00,
2013-10-12 18:40:00,53.9,37.7,30.11,WNW,284,4.0,8.0,54,0.00,,---,0.00,VWS V14.01,2013-10-12 23:40:00,
2013-10-12 18:45:00,53.6,38.3,30.12,NW,317,2.0,5.0,56,0.00,,---,0.00,VWS V14.01,2013-10-12 23:45:00,
2013-10-12 18:50:00,53.2,38.4,30.12,WNW,283,4.0,7.0,57,0.00,,---,0.00,VWS V14.01,2013-10-12 23:50:00,
2013-10-12 18:55:00,52.9,39.0,30.12,NW,307,3.0,9.0,59,0.00,,---,0.00,VWS V14.01,2013-10-12 23:55:00,
2013-10-12 19:00:00,52.7,38.8,30.13,WNW,297,2.0,9.0,59,0.00,,---,0.00,VWS V14.01,2013-10-13 00:00:00,
2013-10-12 19:05:00,52.5,38.6,30.13,NW,326,2.0,7.0,59,0.00,,---,0.00,VWS V14.01,2013-10-13 00:05:00,
2013-10-12 19:10:00,52.3,38.8,30.13,NNW,328,6.0,7.0,60,0.00,,---,0.00,VWS V14.01,2013-10-13 00:10:00,
2013-10-12 19:15:00,51.9,38.9,30.14,WNW,292,1.0,4.0,61,0.00,,---,0.00,VWS V14.01,2013-10-13 00:15:00,
2013-10-12 19:20:00,51.6,39.0,30.14,NW,314,3.0,4.0,62,0.00,,---,0.00,VWS V14.01,2013-10-13 00:20:00,
2013-10-12 19:25:00,51.3,39.2,30.14,NW,323,0.0,2.0,63,0.00,,---,0.00,VWS V14.01,2013-10-13 00:25:00,
2013-10-12 19:30:00,50.9,39.6,30.15,NW,313,0.0,2.0,65,0.00,,---,0.00,VWS V14.01,2013-10-13 00:30:00,
2013-10-12 19:35:00,50.4,39.5,30.15,NW,313,0.0,0.0,66,0.00,,---,0.00,VWS V14.01,2013-10-13 00:35:00,
2013-10-12 19:40:00,49.6,39.1,30.16,NW,314,0.0,0.0,67,0.00,,---,0.00,VWS V14.01,2013-10-13 00:40:00,
2013-10-12 19:45:00,48.9,39.2,30.16,NW,314,0.0,0.0,69,0.00,,---,0.00,VWS V14.01,2013-10-13 00:45:00,
2013-10-12 19:50:00,48.3,39.0,30.16,NW,313,0.0,0.0,70,0.00,,---,0.00,VWS V14.01,2013-10-13 00:50:00,
2013-10-12 19:55:00,47.7,39.1,30.16,NW,314,0.0,0.0,72,0.00,,---,0.00,VWS V14.01,2013-10-13 00:55:00,
2013-10-12 20:00:00,47.1,39.6,30.16,NW,314,0.0,0.0,75,0.00,,---,0.00,VWS V14.01,2013-10-13 01:00:00,
2013-10-12 20:05:00,46.3,38.8,30.16,NW,313,0.0,0.0,75,0.00,,---,0.00,VWS V14.01,2013-10-13 01:05:00,
2013-10-12 20:10:00,45.6,38.8,30.16,NW,314,0.0,0.0,77,0.00,,---,0.00,VWS V14.01,2013-10-13 01:10:00,
2013-10-12 20:15:00,45.1,38.7,30.17,NW,314,0.0,0.0,78,0.00,,---,0.00,VWS V14.01,2013-10-13 01:15:00,
2013-10-12 20:20:00,45.1,39.0,30.17,NW,313,0.0,0.0,79,0.00,,---,0.00,VWS V14.01,2013-10-13 01:20:00,
2013-10-12 20:25:00,45.1,39.3,30.17,NW,313,0.0,0.0,80,0.00,,---,0.00,VWS V14.01,2013-10-13 01:25:00,
2013-10-12 20:30:00,45.2,39.4,30.17,NW,314,0.0,0.0,80,0.00,,---,0.00,VWS V14.01,2013-10-13 01:30:00,
2013-10-12 20:35:00,44.9,39.1,30.17,NW,313,0.0,0.0,80,0.00,,---,0.00,VWS V14.01,2013-10-13 01:35:00,
2013-10-12 20:40:00,45.1,39.0,30.17,NW,311,0.0,0.0,79,0.00,,---,0.00,VWS V14.01,2013-10-13 01:40:00,
2013-10-12 20:45:00,45.4,39.3,30.17,NW,311,0.0,0.0,79,0.00,,---,0.00,VWS V14.01,2013-10-13 01:45:00,
2013-10-12 20:50:00,45.7,39.2,30.17,West,259,0.0,0.0,78,0.00,,---,0.00,VWS V14.01,2013-10-13 01:50:00,
2013-10-12 20:55:00,45.7,38.9,30.17,West,259,0.0,0.0,77,0.00,,---,0.00,VWS V14.01,2013-10-13 01:55:00,
2013-10-12 20:59:00,45.6,39.2,30.17,West,267,0.0,0.0,78,0.00,,---,0.00,VWS V14.01,2013-10-13 01:59:00,
2013-10-12 21:04:00,45.3,38.9,30.18,West,266,0.0,0.0,78,0.00,,---,0.00,VWS V14.01,2013-10-13 02:04:00,
2013-10-12 21:09:00,44.7,38.3,30.18,West,266,0.0,0.0,78,0.00,,---,0.00,VWS V14.01,2013-10-13 02:09:00,
2013-10-12 21:14:00,44.1,38.0,30.18,West,267,0.0,0.0,79,0.00,,---,0.00,VWS V14.01,2013-10-13 02:14:00,
2013-10-12 21:19:00,43.7,38.3,30.18,West,267,0.0,0.0,81,0.00,,---,0.00,VWS V14.01,2013-10-13 02:19:00,
2013-10-12 21:24:00,43.4,38.6,30.19,West,266,0.0,0.0,83,0.00,,---,0.00,VWS V14.01,2013-10-13 02:24:00,
2013-10-12 21:29:00,42.8,38.0,30.19,West,266,0.0,0.0,83,0.00,,---,0.00,VWS V14.01,2013-10-13 02:29:00,
2013-10-12 21:34:00,42.3,37.8,30.19,West,266,0.0,0.0,84,0.00,,---,0.00,VWS V14.01,2013-10-13 02:34:00,
2013-10-12 21:39:00,41.9,37.7,30.20,West,266,0.0,0.0,85,0.00,,---,0.00,VWS V14.01,2013-10-13 02:39:00,
2013-10-12 21:44:00,41.7,37.5,30.20,West,267,0.0,0.0,85,0.00,,---,0.00,VWS V14.01,2013-10-13 02:44:00,
2013-10-12 21:49:00,41.6,37.7,30.20,West,267,0.0,0.0,86,0.00,,---,0.00,VWS V14.01,2013-10-13 02:49:00,
2013-10-12 21:54:00,41.7,37.5,30.20,West,267,0.0,0.0,85,0.00,,---,0.00,VWS V14.01,2013-10-13 02:54:00,
2013-10-12 21:59:00,41.5,37.3,30.20,West,267,0.0,0.0,85,0.00,,---,0.00,VWS V14.01,2013-10-13 02:59:00,
2013-10-12 22:04:00,41.2,37.3,30.21,West,267,0.0,0.0,86,0.00,,---,0.00,VWS V14.01,2013-10-13 03:04:00,
2013-10-12 22:09:00,41.0,37.4,30.21,West,266,0.0,0.0,87,0.00,,---,0.00,VWS V14.01,2013-10-13 03:09:00,
2013-10-12 22:14:00,41.1,37.5,30.21,West,267,0.0,0.0,87,0.00,,---,0.00,VWS V14.01,2013-10-13 03:14:00,
2013-10-12 22:19:00,41.1,37.8,30.21,West,267,0.0,0.0,88,0.00,,---,0.00,VWS V14.01,2013-10-13 03:19:00,
2013-10-12 22:25:00,41.3,37.7,30.21,West,267,0.0,0.0,87,0.00,,---,0.00,VWS V14.01,2013-10-13 03:25:00,
2013-10-12 22:30:00,41.8,37.9,30.21,West,267,0.0,1.0,86,0.00,,---,0.00,VWS V14.01,2013-10-13 03:30:00,
2013-10-12 22:35:00,42.2,38.0,30.21,West,266,0.0,0.0,85,0.00,,---,0.00,VWS V14.01,2013-10-13 03:35:00,
2013-10-12 22:40:00,42.7,38.2,30.21,West,267,0.0,1.0,84,0.00,,---,0.00,VWS V14.01,2013-10-13 03:40:00,
2013-10-12 22:45:00,42.5,37.7,30.22,West,267,0.0,0.0,83,0.00,,---,0.00,VWS V14.01,2013-10-13 03:45:00,
2013-10-12 22:50:00,42.0,37.5,30.22,WSW,245,0.0,1.0,84,0.00,,---,0.00,VWS V14.01,2013-10-13 03:50:00,
2013-10-12 22:55:00,41.7,37.5,30.22,WSW,245,0.0,0.0,85,0.00,,---,0.00,VWS V14.01,2013-10-13 03:55:00,
2013-10-12 23:00:00,41.7,37.5,30.22,WSW,245,0.0,0.0,85,0.00,,---,0.00,VWS V14.01,2013-10-13 04:00:00,
2013-10-12 23:01:00,41.6,37.4,30.22,WSW,245,0.0,0.0,85,0.00,,---,0.00,VWS V14.01,2013-10-13 04:01:00,
2013-10-12 23:02:00,41.7,37.5,30.22,WSW,245,0.0,0.0,85,0.00,,---,0.00,VWS V14.01,2013-10-13 04:02:00,
2013-10-12 23:07:00,41.9,37.7,30.22,WSW,248,0.0,1.0,85,0.00,,---,0.00,VWS V14.01,2013-10-13 04:07:00,
2013-10-12 23:13:00,42.2,37.7,30.23,WSW,247,0.0,0.0,84,0.00,,---,0.00,VWS V14.01,2013-10-13 04:13:00,
2013-10-12 23:18:00,42.6,37.5,30.23,SW,225,0.0,3.0,82,0.00,,---,0.00,VWS V14.01,2013-10-13 04:18:00,
2013-10-12 23:23:00,42.8,37.7,30.23,West,263,0.0,1.0,82,0.00,,---,0.00,VWS V14.01,2013-10-13 04:23:00,
2013-10-12 23:28:00,43.2,37.8,30.23,WSW,248,0.0,2.0,81,0.00,,---,0.00,VWS V14.01,2013-10-13 04:28:00,
2013-10-12 23:33:00,43.3,37.6,30.23,West,276,0.0,0.0,80,0.00,,---,0.00,VWS V14.01,2013-10-13 04:33:00,
2013-10-12 23:38:00,43.4,37.3,30.24,WSW,255,0.0,1.0,79,0.00,,---,0.00,VWS V14.01,2013-10-13 04:38:00,
2013-10-12 23:43:00,43.6,37.5,30.24,SW,236,0.0,1.0,79,0.00,,---,0.00,VWS V14.01,2013-10-13 04:43:00,
2013-10-12 23:48:00,43.6,37.5,30.24,WSW,256,1.0,1.0,79,0.00,,---,0.00,VWS V14.01,2013-10-13 04:48:00,
2013-10-12 23:53:00,43.7,37.3,30.25,WNW,285,0.0,2.0,78,0.00,,---,0.00,VWS V14.01,2013-10-13 04:53:00,
2013-10-12 23:58:00,43.5,37.1,30.25,WNW,285,0.0,2.0,78,0.00,,---,0.00,VWS V14.01,2013-10-13 04:58:00,